TITAN 3C TRANSTAGE DEB, 25001

Orbit data source: Space-Track

TITAN 3C TRANSTAGE DEB, 25001 is space debris in GEO originally from a launch on Thu, 26 Sep 1968 UTC launched from the Air Force Eastern Test Range (AFETR). Debris objects in space refer to the collection of defunct objects orbiting the Earth. Examples of debris include non-operational satellites, rocket bodies, and fragments generated from explosions, collisions, or faulty payload assembly.

Loading next visibility...
Identifier
25001, 1968-081H
Orbit
GEO
Country
Flag of USUS
Related business
Manufacturer
Unknown
Mission
Spacecraft
Bus & Motor
Unknown
Mass
Unknown
Launch date (UTC)
1968-09-26 (57 years ago)
Launch vehicle
Unknown
Launch site
Air Force Eastern Test Range (AFETR)
Object type
Payload
Rocket body
Debris
Shape & HBR
Unknown shape, 1.1 m
Radar Cross Section
Medium (>0.1 m² and <1 m²)

Expand to show TLE details & history
Last TLE update: 7 hours ago

TLE from 7 hours ago
0 TITAN 3C TRANSTAGE DEB
1 25001U 68081H   25292.24495711 -.00000196  00000-0  00000-0 0  9991
2 25001   1.5425  45.2567 0056970 356.9149 321.7653  1.01695774115868
Epoch: 2025-10-19T05:52Z
TLE epoch observation values (Epoch: 2025-10-19T05:52:44.294Z)
Latitude
-1.01295°
Longitude
-112.63148°
Altitude
35,204.164 km
Speed
3.103 km/s
True Right ascension
00h 14m 04s
True Declination
-1° 00' 43"
Sunlit
Object was in daylight at epoch
Visualization orbit readout
Latitude
Unknown
Longitude
Unknown
Altitude
Unknown
Speed
Unknown
Apparent Right ascension
Unknown
Apparent Declination
Unknown
Sunlit
N/A
Visualization observer readout
Local Sidereal Time
07:47:24
Azimuth
Unknown
Elevation
Unknown
Doppler factor
Unknown
Orbital elements
Apogee altitude
35,631.114 km
Perigee altitude
35,155.172 km
Semi-major axis
41,771.28 km
Eccentricity
0.0057
Inclination
1.5425°
RAAN
45.2567°
Arg. of periapsis
356.9149°
True anomaly
321.35901°
Mean anomaly
321.7653°
Eccentric anomaly
321.56238°
Mean motion
0.25423 °/min
Orbital period
1,416.04 mins
BSTAR
0
Loading maneuver chart data...
Computing Atmospheric mass density...

Documentation

Showing up to 5 results
|